GW1943 Weather Reports


Display with metric or nautical units.
time (UTC)temp
F
wind
direction
speed
MPH
gust
MPH
rain 1hr
in
rain 24hr
in
rain mn
in
humidity
%
barometer
mb
20260901211431 66 208 0.0 0.0 0.00 0.00 0.00 78 1011.3
20260901210927 66 215 0.0 1.0 0.00 0.00 0.00 78 1011.3
20260901210422 66 214 0.0 2.0 0.00 0.00 0.00 78 1011.3
20260901205919 66 214 0.0 0.0 0.00 0.00 0.00 77 1011.0
20260901205413 66 212 1.0 2.0 0.00 0.00 0.00 77 1011.6
20260901204908 66 213 0.0 1.0 0.00 0.00 0.00 78 1011.5
20260901204404 66 212 0.0 0.0 0.00 0.00 0.00 78 1011.3
20260901203903 66 207 1.0 3.0 0.00 0.00 0.00 78 1011.2
20260901203358 66 215 0.0 1.0 0.00 0.00 0.00 78 1011.5
20260901202853 66 203 0.0 0.0 0.00 0.00 0.00 77 1011.5
20260901202348 67 211 0.0 2.0 0.00 0.00 0.00 77 1011.4
20260901201844 67 211 0.0 0.0 0.00 0.00 0.00 76 1011.3
20260901201344 67 189 0.0 0.0 0.00 0.00 0.00 76 1011.4
20260901200838 67 218 0.0 1.0 0.00 0.00 0.00 75 1011.5
20260901200333 68 226 1.0 3.0 0.00 0.00 0.00 74 1011.3
20260901195832 68 211 0.0 1.0 0.00 0.00 0.00 74 1011.5
20260901195330 69 198 0.0 1.0 0.00 0.00 0.00 72 1011.4
20260901194821 69 221 1.0 2.0 0.00 0.00 0.00 72 1011.4
20260901194315 68 232 2.0 2.0 0.00 0.00 0.00 73 1011.5
20260901193812 68 220 1.0 2.0 0.00 0.00 0.00 75 1011.4
20260901193310 68 211 0.0 0.0 0.00 0.00 0.00 75 1011.6
20260901192805 67 220 0.0 1.0 0.00 0.00 0.00 75 1011.7
20260901192301 67 197 2.0 2.0 0.00 0.00 0.00 75 1011.5
20260901191756 67 209 0.0 2.0 0.00 0.00 0.00 76 1011.4
20260901191252 67 202 3.0 5.0 0.00 0.00 0.00 74 1011.6
20260901190748 67 223 1.0 3.0 0.00 0.00 0.00 76 1011.5
20260901190248 67 228 2.0 3.0 0.00 0.00 0.00 76 1011.5
20260901185746 66 217 1.0 5.0 0.00 0.00 0.00 77 1011.8
20260901185245 66 216 1.0 2.0 0.00 0.00 0.00 77 1011.8
20260901184741 66 203 0.0 3.0 0.00 0.00 0.00 77 1011.6
20260901184236 66 216 2.0 5.0 0.00 0.00 0.00 77 1011.6
20260901183732 66 243 2.0 2.0 0.00 0.00 0.00 78 1011.7
20260901183231 66 237 1.0 3.0 0.00 0.00 0.00 77 1011.7
20260901182728 66 216 1.0 2.0 0.00 0.00 0.00 78 1011.6
20260901182226 65 211 0.0 2.0 0.00 0.00 0.00 79 1011.6
20260901181722 65 210 2.0 2.0 0.00 0.00 0.00 78 1011.7
20260901181222 65 201 1.0 2.0 0.00 0.00 0.00 79 1011.7
20260901180721 64 209 1.0 5.0 0.00 0.00 0.00 79 1011.6
20260901180220 64 210 0.0 3.0 0.00 0.00 0.00 81 1011.5
20260901175720 64 225 1.0 2.0 0.00 0.00 0.00 81 1011.5
20260901175215 63 210 2.0 2.0 0.00 0.00 0.00 82 1011.5
20260901174710 63 212 0.0 1.0 0.00 0.00 0.00 83 1011.3
20260901174206 63 208 0.0 2.0 0.00 0.00 0.00 82 1011.3
20260901173701 64 203 0.0 0.0 0.00 0.00 0.00 83 1011.3
20260901173156 63 215 1.0 2.0 0.00 0.00 0.00 84 1011.3
20260901172652 63 214 0.0 1.0 0.00 0.00 0.00 83 1011.2
20260901172149 63 207 1.0 2.0 0.00 0.00 0.00 83 1011.2
20260901171644 62 207 0.0 2.0 0.00 0.00 0.00 85 1011.3
20260901171143 62 210 0.0 1.0 0.00 0.00 0.00 87 1011.4
20260901170643 61 214 0.0 2.0 0.00 0.00 0.00 87 1011.5
20260901170137 61 215 0.0 1.0 0.00 0.00 0.00 88 1011.3
20260901165636 61 213 1.0 3.0 0.00 0.00 0.00 88 1011.5
20260901165132 60 209 0.0 1.0 0.00 0.00 0.00 89 1011.5
20260901164628 60 212 0.0 1.0 0.00 0.00 0.00 89 1011.5
20260901164123 60 221 1.0 2.0 0.00 0.00 0.00 89 1011.7
20260901163618 60 201 2.0 3.0 0.00 0.00 0.00 89 1011.6
20260901163117 60 203 0.0 1.0 0.00 0.00 0.00 89 1011.6
20260901162612 60 214 2.0 2.0 0.00 0.00 0.00 89 1011.6
20260901162112 60 213 0.0 2.0 0.00 0.00 0.00 90 1011.6
20260901161611 60 209 1.0 2.0 0.00 0.00 0.00 90 1011.7
20260901161110 60 211 0.0 1.0 0.00 0.00 0.00 90 1011.5
20260901160607 60 213 1.0 1.0 0.00 0.00 0.00 89 1011.8
20260901155600 60 214 0.0 1.0 0.00 0.00 0.00 90 1011.7
20260901155051 59 211 1.0 3.0 0.00 0.00 0.00 91 1011.8
20260901154551 59 211 0.0 1.0 0.00 0.00 0.00 91 1011.7
20260901154045 59 248 0.0 0.0 0.00 0.00 0.00 91 1011.6
20260901153540 59 210 1.0 1.0 0.00 0.00 0.00 91 1011.7
20260901153034 59 211 0.0 0.0 0.00 0.00 0.00 91 1011.9
20260901152529 59 211 0.0 2.0 0.00 0.00 0.00 91 1011.8
20260901152028 59 208 0.0 1.0 0.00 0.00 0.00 92 1011.8
20260901151524 59 210 0.0 1.0 0.00 0.00 0.00 92 1011.8
20260901151023 59 209 0.0 2.0 0.00 0.00 0.00 92 1011.7
20260901150521 58 211 0.0 0.0 0.00 0.00 0.00 92 1011.6
20260901150020 58 216 0.0 1.0 0.00 0.00 0.00 92 1011.8
20260901145513 58 209 0.0 1.0 0.00 0.00 0.00 93 1011.7
20260901145013 58 199 0.0 0.0 0.00 0.00 0.00 93 1011.7
20260901144508 57 211 0.0 2.0 0.00 0.00 0.00 93 1011.5
20260901144004 57 214 0.0 0.0 0.00 0.00 0.00 94 1011.5
20260901143459 57 208 1.0 2.0 0.00 0.00 0.00 95 1011.7
20260901142955 57 212 0.0 0.0 0.00 0.00 0.00 95 1011.5
20260901142449 57 209 0.0 1.0 0.00 0.00 0.00 95 1011.8
20260901141945 57 211 0.0 1.0 0.00 0.00 0.00 95 1011.4
20260901141439 57 211 0.0 0.0 0.00 0.00 0.00 95 1011.5
20260901140934 57 210 0.0 0.0 0.00 0.00 0.00 94 1011.4
20260901140431 57 209 0.0 1.0 0.00 0.00 0.00 94 1011.4
20260901135926 57 210 0.0 0.0 0.00 0.00 0.00 94 1011.3
20260901135421 57 211 0.0 0.0 0.00 0.00 0.00 93 1011.3
20260901134917 57 218 0.0 0.0 0.00 0.00 0.00 93 1011.1
20260901134413 57 206 0.0 1.0 0.00 0.00 0.00 93 1011.2
20260901133912 57 209 0.0 0.0 0.00 0.00 0.00 93 1011.1
20260901133406 57 194 0.0 1.0 0.00 0.00 0.00 94 1011.2
20260901132904 57 203 0.0 0.0 0.00 0.00 0.00 94 1011.0
20260901132359 57 202 0.0 0.0 0.00 0.00 0.00 94 1011.0
20260901131853 57 207 0.0 0.0 0.00 0.00 0.00 94 1010.9
20260901131352 57 207 0.0 0.0 0.00 0.00 0.00 94 1011.4
20260901130848 57 200 0.0 0.0 0.00 0.00 0.00 94 1011.1
20260901130343 57 205 0.0 1.0 0.00 0.00 0.00 95 1011.2
20260901125840 57 200 0.0 0.0 0.00 0.00 0.00 95 1011.1
20260901125339 57 209 0.0 1.0 0.00 0.00 0.00 95 1011.0
20260901124835 57 215 0.0 0.0 0.00 0.00 0.00 95 1010.9
20260901124330 57 215 0.0 0.0 0.00 0.00 0.00 95 1010.8
20260901123829 57 214 0.0 0.0 0.00 0.00 0.00 96 1011.1
20260901123325 57 212 0.0 1.0 0.00 0.00 0.00 96 1010.8
20260901122823 57 199 0.0 0.0 0.00 0.00 0.00 96 1010.9
20260901122318 57 203 0.0 0.0 0.00 0.00 0.00 96 1011.1
20260901121817 57 201 0.0 0.0 0.00 0.00 0.00 97 1010.7
20260901121312 57 210 0.0 0.0 0.00 0.00 0.00 97 1010.9
20260901120807 57 209 0.0 1.0 0.00 0.00 0.00 97 1010.7
20260901120301 57 209 0.0 0.0 0.00 0.00 0.00 97 1010.6
20260901115756 56 209 0.0 0.0 0.00 0.00 0.00 97 1010.9
20260901115252 56 208 0.0 0.0 0.00 0.00 0.00 97 1010.5
20260901114749 56 201 0.0 0.0 0.00 0.00 0.00 96 1010.5
20260901114244 56 200 0.0 0.0 0.00 0.00 0.00 96 1010.6
20260901113742 56 200 0.0 0.0 0.00 0.00 0.00 96 1010.4
20260901113237 56 200 0.0 0.0 0.00 0.00 0.00 96 1010.4
20260901112732 56 200 0.0 0.0 0.00 0.00 0.00 96 1010.4
20260901112232 56 200 0.0 0.0 0.00 0.00 0.00 96 1010.5
20260901111726 56 200 0.0 0.0 0.00 0.00 0.00 96 1010.4
20260901111220 56 200 0.0 0.0 0.00 0.00 0.00 96 1010.5
20260901110714 56 200 0.0 0.0 0.00 0.00 0.00 96 1010.6
20260901110209 56 200 0.0 0.0 0.00 0.00 0.00 96 1010.5
20260901105706 56 200 0.0 0.0 0.00 0.00 0.00 95 1010.6
20260901105205 56 200 0.0 0.0 0.00 0.00 0.00 95 1010.5
20260901104702 56 200 0.0 0.0 0.00 0.00 0.00 95 1010.5
20260901104156 56 200 0.0 0.0 0.00 0.00 0.00 95 1010.6
20260901103656 56 200 0.0 0.0 0.00 0.00 0.00 94 1010.4
20260901103151 56 200 0.0 0.0 0.00 0.00 0.00 94 1010.4
20260901102646 56 200 0.0 0.0 0.00 0.00 0.00 94 1010.6
20260901102145 57 200 0.0 0.0 0.00 0.00 0.00 94 1010.6
20260901101642 57 200 0.0 0.0 0.00 0.00 0.00 94 1010.4
20260901101140 57 200 0.0 0.0 0.00 0.00 0.00 94 1010.4
20260901100635 57 200 0.0 0.0 0.00 0.00 0.00 93 1010.4
20260901100130 57 200 0.0 0.0 0.00 0.00 0.00 93 1010.4
20260901095628 57 200 0.0 0.0 0.00 0.00 0.00 93 1010.3
20260901095126 57 200 0.0 0.0 0.00 0.00 0.00 93 1010.2
20260901094621 57 200 0.0 0.0 0.00 0.00 0.00 93 1010.2
20260901094120 57 200 0.0 0.0 0.00 0.00 0.00 93 1010.1
20260901093610 57 200 0.0 0.0 0.00 0.00 0.00 93 1010.2
20260901093109 57 200 0.0 0.0 0.00 0.00 0.00 93 1010.4
20260901092606 57 200 0.0 0.0 0.00 0.00 0.00 92 1010.1
20260901092102 57 200 0.0 0.0 0.00 0.00 0.00 92 1010.1
20260901091557 57 200 0.0 0.0 0.00 0.00 0.00 92 1010.2
20260901091052 57 200 0.0 0.0 0.00 0.00 0.00 92 1010.1
20260901090551 58 200 0.0 0.0 0.00 0.00 0.00 91 1010.2
20260901090047 58 200 0.0 0.0 0.00 0.00 0.00 91 1010.2
20260901085542 58 200 0.0 0.0 0.00 0.00 0.00 91 1010.2
20260901085038 58 202 0.0 0.0 0.00 0.00 0.00 91 1010.1
20260901084534 58 202 0.0 0.0 0.00 0.00 0.00 91 1010.3
20260901084031 58 202 0.0 0.0 0.00 0.00 0.00 91 1010.2
20260901083530 58 202 0.0 0.0 0.00 0.00 0.00 91 1010.0
20260901083028 58 202 0.0 0.0 0.00 0.00 0.00 91 1010.1
20260901082524 58 202 0.0 0.0 0.00 0.00 0.00 91 1010.2
20260901082019 58 202 0.0 0.0 0.00 0.00 0.00 91 1009.9
20260901081514 58 202 0.0 0.0 0.00 0.00 0.00 91 1010.0
20260901081009 58 202 0.0 0.0 0.00 0.00 0.00 90 1009.9
20260901080508 58 202 0.0 0.0 0.00 0.00 0.00 90 1009.9
20260901080002 59 202 0.0 0.0 0.00 0.00 0.00 89 1010.0
20260901075458 59 202 0.0 0.0 0.00 0.00 0.00 89 1010.2
20260901074956 59 202 0.0 0.0 0.00 0.00 0.00 89 1009.9
20260901074451 59 202 0.0 0.0 0.00 0.00 0.00 89 1009.8
20260901073946 59 202 0.0 0.0 0.00 0.00 0.00 89 1009.9
20260901073443 59 202 0.0 0.0 0.00 0.00 0.00 89 1010.0
20260901072943 59 202 0.0 0.0 0.00 0.00 0.00 89 1009.8
20260901072438 59 202 0.0 0.0 0.00 0.00 0.00 88 1010.0
20260901071933 59 202 0.0 0.0 0.00 0.00 0.00 88 1010.0
20260901071432 59 202 0.0 0.0 0.00 0.00 0.00 88 1010.0
20260901070932 59 202 0.0 0.0 0.00 0.00 0.00 87 1010.0
20260901070427 59 202 0.0 0.0 0.00 0.00 0.00 87 1009.8
20260901065925 60 202 0.0 0.0 0.00 0.00 0.00 86 1010.0
20260901065422 60 202 0.0 0.0 0.00 0.00 0.00 86 1009.9
20260901064916 60 202 0.0 0.0 0.00 0.00 0.00 85 1009.7
20260901064413 60 202 0.0 0.0 0.00 0.00 0.00 84 1009.9
20260901063910 60 202 0.0 0.0 0.00 0.00 0.00 83 1009.9
20260901063406 60 202 0.0 0.0 0.00 0.00 0.00 83 1009.9
20260901062902 60 202 0.0 0.0 0.00 0.00 0.00 83 1010.1
20260901061853 61 202 0.0 0.0 0.00 0.00 0.00 82 1010.0
20260901061348 61 202 0.0 0.0 0.00 0.00 0.00 82 1009.9
20260901060844 61 202 0.0 0.0 0.00 0.00 0.00 82 1010.1
20260901060340 62 202 0.0 0.0 0.00 0.00 0.00 81 1010.0
20260901055839 62 202 0.0 0.0 0.00 0.00 0.00 81 1010.2
20260901055335 61 202 0.0 0.0 0.00 0.00 0.00 82 1010.0
20260901054832 61 202 0.0 0.0 0.00 0.00 0.00 83 1010.2
20260901054329 62 202 0.0 0.0 0.00 0.00 0.00 82 1010.1
20260901053824 62 202 0.0 0.0 0.00 0.00 0.00 83 1010.4
20260901053319 62 202 0.0 0.0 0.00 0.00 0.00 82 1010.3
20260901052815 62 202 0.0 0.0 0.00 0.00 0.00 83 1010.2
20260901052310 62 202 0.0 0.0 0.00 0.00 0.00 83 1010.3
20260901051809 62 202 0.0 0.0 0.00 0.00 0.00 82 1010.2
20260901051304 62 202 0.0 0.0 0.00 0.00 0.00 82 1010.1
20260901050759 63 202 0.0 0.0 0.00 0.00 0.00 81 1010.3
20260901050255 63 202 0.0 0.0 0.00 0.00 0.00 81 1010.3
20260901045750 63 202 0.0 0.0 0.00 0.00 0.00 81 1010.2
20260901045244 63 202 0.0 0.0 0.00 0.00 0.00 81 1010.3
20260901044740 63 202 0.0 0.0 0.00 0.00 0.00 81 1010.4
20260901044236 63 202 0.0 0.0 0.00 0.00 0.00 81 1010.2
20260901043731 64 208 0.0 0.0 0.00 0.00 0.00 80 1010.5
20260901043227 64 208 0.0 0.0 0.00 0.00 0.00 80 1010.2
20260901042726 64 209 0.0 0.0 0.00 0.00 0.00 79 1010.3
20260901042221 64 203 0.0 0.0 0.00 0.00 0.00 79 1010.4
20260901041717 64 199 0.0 1.0 0.00 0.00 0.00 78 1010.2
20260901041216 64 210 0.0 0.0 0.00 0.00 0.00 79 1010.2
20260901040711 64 206 0.0 0.0 0.00 0.00 0.00 79 1010.3
20260901040210 64 208 0.0 0.0 0.00 0.00 0.00 78 1010.2
20260901035709 64 208 0.0 0.0 0.00 0.00 0.00 78 1010.0
20260901035208 65 208 0.0 0.0 0.00 0.00 0.00 77 1010.1
20260901034707 65 198 0.0 1.0 0.00 0.00 0.00 76 1010.1
20260901034203 65 210 0.0 0.0 0.00 0.00 0.00 77 1010.0
20260901033702 65 198 0.0 0.0 0.00 0.00 0.00 76 1010.1
20260901033202 66 198 0.0 0.0 0.00 0.00 0.00 75 1009.9
20260901032700 66 199 0.0 0.0 0.00 0.00 0.00 75 1010.0
20260901032155 66 199 0.0 0.0 0.00 0.00 0.00 75 1009.6
20260901031650 66 196 0.0 0.0 0.00 0.00 0.00 74 1009.8
20260901031146 67 206 0.0 0.0 0.00 0.00 0.00 74 1009.6
20260901030641 67 210 0.0 1.0 0.00 0.00 0.00 72 1009.9
20260901030135 67 196 0.0 2.0 0.00 0.00 0.00 71 1009.7
20260901025630 68 203 0.0 1.0 0.00 0.00 0.00 71 1009.6
20260901025125 68 206 0.0 1.0 0.00 0.00 0.00 70 1009.7
20260901024624 68 28 0.0 2.0 0.00 0.00 0.00 69 1009.6
20260901024123 68 216 0.0 0.0 0.00 0.00 0.00 70 1009.7
20260901023622 69 202 1.0 1.0 0.00 0.00 0.00 70 1009.5
20260901023117 69 194 0.0 0.0 0.00 0.00 0.00 69 1009.8
20260901022613 70 194 0.0 2.0 0.00 0.00 0.00 68 1009.9
20260901022108 70 193 0.0 2.0 0.00 0.00 0.00 67 1009.9
20260901021604 71 177 0.0 2.0 0.00 0.00 0.00 66 1009.7
20260901021058 71 214 0.0 0.0 0.00 0.00 0.00 67 1009.8
20260901020554 70 211 0.0 0.0 0.00 0.00 0.00 67 1009.8
20260901020049 70 217 0.0 0.0 0.00 0.00 0.00 67 1009.9
20260901015545 70 200 0.0 1.0 0.00 0.00 0.00 66 1009.8
20260901015044 71 206 0.0 1.0 0.00 0.00 0.00 66 1009.7
20260901014540 71 204 0.0 1.0 0.00 0.00 0.00 65 1009.8
20260901014036 71 215 0.0 0.0 0.00 0.00 0.00 65 1009.9
20260901013531 72 26 0.0 1.0 0.00 0.00 0.00 63 1009.6
20260901013027 72 207 0.0 1.0 0.00 0.00 0.00 63 1009.7
20260901012526 72 211 0.0 1.0 0.00 0.00 0.00 63 1009.6
20260901012022 73 213 0.0 2.0 0.00 0.00 0.00 62 1009.7
20260901011519 73 215 0.0 1.0 0.00 0.00 0.00 63 1009.7
20260901011016 73 211 0.0 1.0 0.00 0.00 0.00 62 1009.8
20260901010511 73 37 2.0 2.0 0.00 0.00 0.00 61 1009.8
20260901010011 74 187 1.0 3.0 0.00 0.00 0.00 60 1009.9
20260901005505 73 265 0.0 2.0 0.00 0.00 0.00 60 1009.9
20260901005001 74 208 1.0 2.0 0.00 0.00 0.00 60 1009.8
20260901004500 74 208 0.0 1.0 0.00 0.00 0.00 59 1009.6
20260901003955 74 21 4.0 5.0 0.00 0.00 0.00 58 1009.8
20260901003450 75 33 0.0 2.0 0.00 0.00 0.00 59 1009.8
20260901002948 75 234 0.0 1.0 0.00 0.00 0.00 58 1009.9
20260901002448 75 203 1.0 3.0 0.00 0.00 0.00 57 1009.8
20260901001942 76 239 1.0 2.0 0.00 0.00 0.00 56 1009.8
20260901001438 78 311 1.0 5.0 0.00 0.00 0.00 54 1009.9
20260901000933 77 231 0.0 5.0 0.00 0.00 0.00 54 1009.9
20260901000428 79 351 3.0 7.0 0.00 0.00 0.00 52 1009.8
20260831235926 79 194 0.0 2.0 0.00 0.00 0.00 52 1009.8
20260831235423 79 219 0.0 1.0 0.00 0.00 0.00 52 1009.9
20260831234917 78 41 2.0 3.0 0.00 0.00 0.00 51 1009.9
20260831234412 78 72 0.0 6.0 0.00 0.00 0.00 53 1010.2
20260831233907 79 55 3.0 5.0 0.00 0.00 0.00 50 1010.5
20260831233402 80 209 0.0 5.0 0.00 0.00 0.00 52 1010.4
20260831232858 79 15 1.0 2.0 0.00 0.00 0.00 51 1010.2
20260831232353 79 232 0.0 5.0 0.00 0.00 0.00 53 1010.2
20260831231849 79 256 0.0 1.0 0.00 0.00 0.00 50 1010.6
20260831231346 77 213 2.0 5.0 0.00 0.00 0.00 53 1010.4
20260831230841 77 212 0.0 2.0 0.00 0.00 0.00 53 1010.5
20260831230335 78 238 2.0 2.0 0.00 0.00 0.00 51 1010.5
20260831225830 77 215 0.0 1.0 0.00 0.00 0.00 54 1010.5
20260831225324 76 109 1.0 3.0 0.00 0.00 0.00 52 1010.7
20260831224820 78 195 0.0 3.0 0.00 0.00 0.00 52 1010.8
20260831224315 79 181 2.0 5.0 0.00 0.00 0.00 50 1010.7
20260831223809 80 261 2.0 3.0 0.00 0.00 0.00 49 1010.7
20260831223306 79 29 1.0 2.0 0.00 0.00 0.00 51 1010.8
20260831222803 78 13 1.0 6.0 0.00 0.00 0.00 51 1010.9
20260831222258 79 217 0.0 5.0 0.00 0.00 0.00 52 1010.8
20260831221753 78 7 2.0 5.0 0.00 0.00 0.00 50 1011.4
20260831221248 80 204 1.0 2.0 0.00 0.00 0.00 49 1011.1
20260831220743 80 26 2.0 2.0 0.00 0.00 0.00 48 1011.1
20260831220238 79 28 1.0 3.0 0.00 0.00 0.00 51 1011.2
20260831215738 79 355 2.0 3.0 0.00 0.00 0.00 51 1011.1
20260831215235 81 227 0.0 0.0 0.00 0.00 0.00 53 1011.2
20260831214731 81 210 0.0 3.0 0.00 0.00 0.00 52 1011.5
20260831214228 78 206 0.0 2.0 0.00 0.00 0.00 52 1011.3
20260831213723 77 221 0.0 5.0 0.00 0.00 0.00 55 1011.5
20260831213220 78 242 3.0 3.0 0.00 0.00 0.00 51 1011.6
20260831212715 79 215 0.0 2.0 0.00 0.00 0.00 54 1011.4
20260831212212 78 212 1.0 2.0 0.00 0.00 0.00 53 1011.5
20260831211710 77 211 0.0 2.0 0.00 0.00 0.00 57 1011.6